Regional Weather Roundup
Issued by NWS

Home | Current Version | Previous Version | Graphics & Text | Print | Product List | Glossary On
Versions: 1 2 3 4 5 6 7 8 9 10 11 12 13 14 15 16 17 18 19 20 21 22 23 24 25 26 27 28 29 30 31 32 33 34 35 36 37 38 39 40 41 42 43 44 45 46 47 48 49 50
896
ASUS45 KSLC 251710
RWRUT

UTAH REGIONAL WEATHER ROUNDUP
NATIONAL WEATHER SERVICE SALT LAKE CITY UT
1100 AM MDT WED MAY 25 2016

UTZ001>011-023>025-251800-

NORTHERN UTAH

CITY           SKY/WX    TMP DP  RH WIND       PRES   REMARKS
BRIGHAM CITY     N/A     59  40  49 S9        30.04S
DUGWAY         MOSUNNY   62  40  44 NW7       30.06
HILL AFB       PTSUNNY   55  39  54 SW1       30.05R
LOGAN          CLOUDY    55  45  68 VRB3      30.04R
OGDEN          CLOUDY    58  40  51 SW6       30.04R
PROVO AIRPORT  MOSUNNY   61  34  36 SW6       30.05R
SALT LAKE CITY MOSUNNY   62  39  42 CALM      30.03S
VERNAL         MOSUNNY   59  35  40 MISG      30.04F
WENDOVER       CLOUDY    57  37  47 NW15      30.06R
HEBER CITY     PTSUNNY   61  34  36 SW10      30.04S
WEST JORDAN    MOSUNNY   59  37  44 SW3       30.05R

$$

UTZ012>022-026-027-251800-

SOUTHERN/CENTRAL UTAH

CITY           SKY/WX    TMP DP  RH WIND       PRES   REMARKS
BLANDING       SUNNY     62  23  22 S13G20    30.19S
BRYCE CANYON   SUNNY     53  26  35 E12G17    30.14S
CEDAR CITY     SUNNY     61  25  25 VRB6      30.05S
DELTA          SUNNY     59  36  41 S7        30.05S
HANKSVILLE     SUNNY     68  23  18 W8        30.05F
MILFORD        SUNNY     64  26  23 S12G18    30.03F
MOAB/CYNLANDS  SUNNY     68  23  18 SW13      30.02S
PRICE          MOSUNNY   58  27  30 VRB5      30.07S
ST GEORGE      SUNNY     68  27  21 CALM      30.01F

$$

REGIONAL REPORTS     COLORADO/ARIZONA

CITY           SKY/WX    TMP DP  RH WIND       PRES   REMARKS
CRAIG, CO      PTSUNNY   59  28  30 W12G33    30.07S
GRAND JUNCTION SUNNY     66  28  24 NW14G20   30.04F
RIFLE          MOSUNNY   65  26  23 W16       30.05F
MONTROSE       SUNNY     65  17  15 VRB3      30.09F
CORTEZ         SUNNY     63  21  20 VRB5G21   30.12F
PAGE, AZ       SUNNY     67  19  16 CALM      30.04F
GRAND CANYON   SUNNY     57  17  21 VRB6      30.14S
KINGMAN        SUNNY     72  24  16 S18G24    30.01S
FLAGSTAFF      NOT AVBL

$$

REGIONAL REPORTS    NEVADA/IDAHO/WYOMING

CITY           SKY/WX    TMP DP  RH WIND       PRES   REMARKS
LAS VEGAS, NV  MOSUNNY   72  35  25 CALM      29.93S
ELY            PTSUNNY   54  35  48 VRB3      30.08S
ELKO           CLOUDY    53  43  68 SW9       30.07S
POCATELLO, ID  MOSUNNY   57  43  59 SW21      30.03S
BURLEY         PTSUNNY   57  41  55 W12G20    30.02R
EVANSTON, WY   CLOUDY    51  35  54 W17G26    30.08S
ROCK SPRINGS   MOSUNNY   54  31  41 W17G23    30.06S
KEMMERER         N/A     46  36  66 W14G22    30.09R

$$




USA.gov is the U.S. government's official web portal to all federal, state and local government web resources and services.